Location: Sabalos
(43.2860°N, 0.1414°E)
Time: 15:14:55
(UTC+00:00)

Daily predictions for brighter satellites

Satellite Brightness Start Highest point End
(mag) Time Altitude Azimuth Time Altitude Azimuth Time Altitude Azimuth
COSMOS 2428 4.3 20:17:03 10° SE 20:20:11 15° E 20:23:20 10° ENE
Geosat 4.1 20:16:00 10° SSE 20:21:02 90° ENE 20:26:06 10° NNW
Cosmos 1812 Rocket 3.8 20:18:54 10° N 20:23:10 54° E 20:27:23 10° SSE
Delta 2 Rocket 4.2 20:22:47 10° SW 20:25:29 22° S 20:28:08 10° SE
CZ-2C R/B 4.1 20:22:30 10° N 20:27:16 77° WNW 20:32:02 10° SSW
Cosmos 1602 Rocket 3.5 20:23:47 10° S 20:28:10 77° E 20:32:38 10° N
Cosmos 2263 Rocket 3.3 20:27:26 10° NW 20:32:36 40° WSW 20:37:44 10° S
Atlas Centaur 2 3.5 20:28:45 10° SW 20:33:20 24° S 20:38:46 10° ESE
MetOp-B 4.4 20:28:23 10° SSE 20:33:37 57° ENE 20:38:52 10° N
Nadezhda 1 Rocket 4.2 20:27:29 10° N 20:33:52 65° E 20:40:12 10° SSE
Terra 3.8 20:32:39 10° E 20:35:24 16° ENE 20:38:10 10° NNE
Cosmos 2219 Rocket 3.3 20:31:46 10° SSE 20:36:03 23° ESE 20:40:22 10° NE
Cosmos 2360 Rocket 2.2 20:32:04 10° SSW 20:37:39 69° ESE 20:43:18 10° NNE
IGS 5A 4.1 20:35:34 11° SE 20:39:19 40° ENE 20:43:13 10° N
Meteor 2-1 Rocket 4.4 20:33:36 10° N 20:39:27 87° W 20:45:22 10° S
IRIS 4.3 20:37:52 10° WSW 20:41:05 42° S 20:43:19 11° E
Cosmos 2333 Rocket 3.0 20:40:51 10° SSE 20:45:43 31° ESE 20:50:39 10° NE
Resurs 01 Rocket 2.1 20:46:41 10° S 20:51:03 60° W 20:55:26 10° NNW
Cosmos 1818 3.6 20:47:25 10° SSW 20:52:50 89° ESE 20:58:19 10° NE
CZ-2C R/B 4.2 20:50:20 10° N 20:55:18 38° WNW 21:00:10 10° SW
Cosmos-2242 3.3 20:51:26 10° N 20:55:42 53° E 20:59:05 16° SSE
Cosmos 773 Rocket 4.4 20:50:48 10° S 20:55:48 45° ESE 21:00:51 10° NNE
SL-16 R/B 3.8 20:51:24 10° SW 20:56:41 40° WNW 21:02:01 10° NNE
ERS-1 Rocket 3.6 20:56:51 15° SE 21:00:37 41° ENE 21:05:21 10° N
GEOS 3 Rocket 3.6 20:59:58 10° NE 21:05:24 79° SE 21:10:46 10° SSW
Cosmos 2278 Rocket 3.9 21:04:27 10° N 21:08:48 22° NE 21:13:07 10° E
USA 215 3.3 21:02:28 10° NE 21:08:54 57° SE 21:15:18 10° SSW
ATLAS 5 CENTAUR R/B 1.8 21:05:32 10° SW 21:09:37 71° NW 21:14:11 10° NNE
Meteor 1-11 4.4 21:05:32 12° S 21:10:35 54° E 21:16:06 10° NNE
USA 245 3.0 21:08:35 19° S 21:10:50 83° WSW 21:14:50 10° NNW
Cosmos 1758 Rocket 3.8 21:09:12 10° SSW 21:13:40 72° W 21:18:12 10° N
Cosmos 1844 Rocket 2.7 21:08:30 10° NNW 21:14:07 87° WSW 21:18:16 18° SSE
Cosmos 1400 Rocket 2.7 21:11:02 10° N 21:15:02 87° ENE 21:17:41 20° S
SPOT 5 3.3 21:13:56 19° SE 21:17:17 50° ENE 21:21:58 10° N
Meteor 2-10 Rocket 4.4 21:13:12 10° NNW 21:18:07 48° W 21:23:10 10° SSW
Lacrosse 5 rocket 4.4 21:16:31 10° NW 21:18:39 13° NNW 21:20:44 10° NNE
Spot 2 Rocket 3.7 21:16:44 14° S 21:21:06 70° WSW 21:26:13 10° NNW
OAO 3 Rocket 4.4 21:18:13 10° WSW 21:22:17 26° SSW 21:23:58 21° SSE
USA 81 4.2 21:19:52 18° SSE 21:23:37 57° E 21:28:47 10° NNE
Landsat 7 4.1 21:21:48 16° S 21:25:38 66° WSW 21:30:23 10° NNW
BREEZE M DEB (TANK) 1.8 21:24:35 10° WNW 21:27:05 61° NNE 21:27:39 39° E
Cosmos 2181 Rocket 4.1 21:23:43 10° N 21:30:03 68° E 21:34:15 22° SSE
SPOT 1/Viking Rocket 3.8 21:31:53 18° S 21:35:42 67° WSW 21:40:52 10° NNW
Cosmos 1953 Rocket 3.6 21:33:11 14° SSW 21:36:48 75° W 21:41:09 10° N
USA 267 4.0 21:34:20 10° E 21:40:33 47° NNE 21:46:47 10° NW
SAR-Lupe-2 4.4 21:41:26 10° N 21:44:57 49° WNW 21:47:58 13° SW
Cosmos 2084 4.0 21:41:37 10° NNW 21:45:59 53° NE 21:48:05 28° ESE
OAO 2 Rocket 4.1 21:42:28 10° WSW 21:47:13 34° S 21:48:29 30° SSE
Cosmos 1842 Rocket 3.9 21:43:16 10° N 21:47:30 49° ENE 21:49:02 33° SE
Cosmos 1455 4.5 21:45:22 10° NW 21:48:15 20° W 21:51:08 10° SW
MTI 4.2 21:50:24 10° NNE 21:53:10 40° E 21:53:10 40° E
Cosmos 923 Rocket 4.5 21:52:20 31° SSE 21:54:09 42° ESE 21:59:06 10° NNE
ATLAS CENTAUR R/B 1.1 21:53:52 10° NNW 21:57:32 67° NE 21:58:26 46° ESE
Cosmos 1825 4.3 21:58:09 14° E 21:58:09 14° E 21:59:47 10° NE
Cosmos 1980 4.1 21:56:55 31° SSE 21:58:52 41° ESE 22:04:08 10° NE
COSMOS 2428 2.8 21:58:02 10° SSW 22:03:42 77° WNW 22:09:25 10° NNE
Cosmos 1869 3.3 22:04:30 10° N 22:08:29 68° E 22:09:23 49° SE
NOSS 0 Rocket 3.9 22:07:31 25° S 22:11:07 65° ESE 22:17:13 10° NNE
Terra 2.0 22:10:34 33° S 22:12:36 66° WSW 22:17:21 10° NNW
NOSS 3-4 (A) 4.5 22:07:50 10° NNW 22:14:32 49° NE 22:19:46 20° ESE
NOSS 3-4 (C) 4.5 22:07:57 10° NNW 22:14:39 48° NE 22:19:55 19° ESE
Cosmos 2237 Rocket 2.3 22:14:58 35° SSE 22:17:05 55° ESE 22:22:39 10° NNE
Genesis I 4.1 22:18:35 33° E 22:18:35 33° E 22:21:22 10° NE
Cosmos 2344 3.8 22:16:02 28° S 22:19:32 46° ESE 22:26:49 10° NE
Cosmos 2219 Rocket 2.9 22:14:10 10° SW 22:19:36 52° WNW 22:25:05 10° NNE
BREEZE-M DEB 4.5 22:16:13 10° WNW 22:20:27 83° NNE 22:38:24 10° ESE
Elektron 1 4.0 22:21:21 65° ESE 22:21:21 65° ESE 22:25:43 10° NE
BREEZE-M R/B 4.0 22:11:53 10° WNW 22:21:43 63° SW 22:23:36 40° SSE
Atlas Centaur 2 3.7 22:16:36 10° WSW 22:21:21 25° SSW 22:21:21 25° SSW
NOSS 3-3 (A) 4.4 22:16:35 10° SW 22:22:21 61° NW 22:28:54 10° NNE
NOSS 3-3 (C) 4.4 22:16:40 10° SW 22:22:28 62° NW 22:29:01 10° NNE
DELTA 2 R/B (1) 3.7 22:22:24 10° WSW 22:27:44 48° SSE 22:30:03 30° ESE
Cosmos 1315 Rocket 4.0 22:24:48 10° NNW 22:28:36 37° W 22:29:55 29° SW
Cosmos 2333 Rocket 3.4 22:24:27 10° SW 22:29:48 42° WNW 22:35:14 10° NNE
Cosmos 2184 Rocket 4.1 22:27:10 27° SSW 22:30:48 76° W 22:37:08 10° N
Thor Agena Rocket 3.7 22:27:12 10° NNE 22:32:13 54° E 22:33:18 45° SE
Meteor 2-2 Rocket 4.3 22:27:49 10° NNW 22:33:38 75° W 22:35:55 38° S
Cosmos 2221 3.0 22:33:59 10° NNW 22:38:15 54° W 22:39:20 42° SW
BREEZE-M DEB (TANK) 3.3 22:36:20 10° WNW 22:40:14 32° N 22:41:22 22° NE
Iridium 2 3.8 22:38:39 10° N 22:42:26 58° E 22:42:26 58° E
Cosmos 1892 2.8 22:41:59 58° WSW 22:42:27 64° W 22:46:14 10° N
ATLAS 2AS CENTAUR R/B 3.1 22:35:06 10° NNW 22:42:38 63° NE 22:46:25 29° ESE
Cosmos 1371 Rocket 4.4 22:37:29 10° NNW 22:42:39 53° ENE 22:44:15 39° ESE
EO 1 Del DPAF 3.4 22:41:30 10° NNE 22:44:59 58° E 22:44:59 58° E
Okean 3 Rocket 4.4 22:47:03 36° E 22:47:09 36° E 22:51:13 10° NNE
MOS 1-B Rocket 4.3 22:39:42 10° NNE 22:47:18 68° E 22:49:56 39° S
Aureole 2 Rocket 4.3 22:47:25 10° NNE 22:48:59 18° NE 22:48:59 18° NE
Cosmos 2112 Rocket 3.9 22:48:24 45° SSW 22:50:07 85° ESE 22:55:31 10° NNE
USA 215 4.1 22:45:33 10° NE 22:51:52 51° NNW 22:58:08 10° WSW
Cosmos 1606 4.0 22:48:54 10° NNE 22:52:19 29° ENE 22:52:20 29° ENE
Cosmos 2278 Rocket 2.3 22:47:46 10° NNW 22:53:23 66° WSW 22:54:59 46° S
Cosmos 158 Rocket 3.8 22:52:56 47° SSW 22:54:21 81° WNW 22:59:17 10° NNE
Lacrosse 5 rocket 4.3 22:57:20 10° NNW 22:59:21 13° NNE 23:01:19 10° NE
Spot 4 3.7 22:59:07 60° SSE 22:59:59 90° ESE 23:04:48 10° NNW
Cosmos 1943 Rocket 4.0 22:56:37 10° N 23:01:07 23° NE 23:04:40 14° E
SL-16 R/B 2.5 23:00:46 43° SE 23:01:27 45° ESE 23:06:50 10° NE
TIMED 4.3 23:01:49 74° SE 23:02:00 76° ESE 23:06:23 10° NNE
Cosmos 2058 3.9 23:01:10 34° WSW 23:02:13 40° WNW 23:06:09 10° N
Cosmos 1408 2.9 23:03:24 57° WNW 23:03:24 57° WNW 23:06:50 10° N
Gblst 52 Del rocket 4.4 22:59:49 10° WNW 23:05:40 66° SW 23:07:28 46° SSE
Cosmos 2056 Rocket 3.6 23:01:13 10° NNW 23:06:39 74° ENE 23:07:58 52° SE
Cosmos 2154 Rocket 4.4 23:07:50 31° SW 23:10:44 58° W 23:16:52 10° N
Nadezhda 3 Rocket 4.3 23:05:20 10° NNW 23:11:36 61° W 23:13:54 38° SSW
Cosmos 2341 Rocket 3.9 23:11:46 46° S 23:13:46 85° E 23:20:01 10° N
Cosmos 1680 Rocket 4.3 23:15:58 26° SW 23:18:36 48° WNW 23:23:45 10° N
Meteor 2-3 Rocket 4.1 23:21:02 42° ESE 23:21:59 46° E 23:27:24 10° NNE
USA 267 3.3 23:21:24 45° SSE 23:23:24 64° SW 23:29:56 10° NW
Cosmos 2151 3.1 23:23:52 63° WSW 23:24:10 65° W 23:28:26 10° N
IRIDIUM 104 4.3 23:23:26 56° SE 23:24:16 66° E 23:29:27 10° N
Helios 1A 3.9 23:24:53 36° E 23:25:14 37° ENE 23:29:05 10° N
SL-8 Rocket 3.9 23:30:59 50° S 23:32:43 88° E 23:38:54 10° N
Cosmos 1825 3.1 23:32:56 39° WNW 23:32:57 39° WNW 23:36:32 10° N
IRIDIUM 114 4.2 23:32:35 63° SSE 23:33:24 80° E 23:38:38 10° N
Cosmos 1452 Rocket 4.2 23:28:34 10° N 23:33:39 46° ENE 23:35:06 36° ESE
CZ-4C R/B 4.4 23:27:31 10° NNW 23:33:41 32° NE 23:40:40 10° E
Cosmos 1340 3.3 23:34:23 49° NE 23:34:23 49° NE 23:37:24 10° NNE
BREEZE-M DEB (TANK) 4.4 23:31:19 10° WNW 23:32:44 16° W 23:32:44 16° W
COSMOS 2455 3.8 23:29:25 10° NNW 23:35:10 43° NE 23:38:24 24° ESE
ALOS 2 2.5 23:35:27 76° WSW 23:35:34 77° WSW 23:39:59 10° NNW
Cosmos 1408 Rocket 3.7 23:35:56 61° E 23:35:56 61° E 23:40:11 10° NNE
Cosmos 1933 3.4 23:34:28 10° N 23:38:13 72° NE 23:38:13 72° NE
Meteor 2-12 Rocket 4.3 23:37:27 53° S 23:39:01 82° E 23:45:11 10° N
Cosmos 1151 Rocket 2.9 23:35:43 10° N 23:40:03 87° ENE 23:40:03 87° ENE
IRIDIUM 103 4.2 23:41:42 64° SSW 23:42:33 85° W 23:47:47 10° N
Cosmos 44 3.1 23:43:37 64° W 23:44:00 68° NW 23:48:24 10° NNE
Cosmos 1500 Rocket 4.5 23:44:49 36° E 23:44:49 36° E 23:48:46 10° NNE
Cosmos 2369 Rocket 3.5 23:40:50 10° N 23:45:54 34° NE 23:48:49 21° ESE
Cosmos 1727 Rocket 4.2 23:40:01 10° N 23:46:13 63° E 23:48:04 44° SE
GP-B 3.2 23:44:14 10° N 23:48:37 63° W 23:48:50 62° W
Cosmos 371 Rocket 3.1 23:45:04 10° NNW 23:49:57 82° ENE 23:50:25 72° SE
Helios 1B rocket 3.8 23:52:14 10° NE 23:55:23 28° E 23:55:23 28° E
